Weather in Posyolok Michurina

Russia / Republic of Adygea     44°27′35″N   40°09′29″E
temp.,
°C
wind,
m/s
gust,
m/s
humid.,
%
clouds,
%
prec.,
mm/h
press.,
hPa
HPBL,
m
23 april, fri
fri2300:00+7sw22970 0.0 102528
03:00+5ssw22975 0.0 102534
06:00+6s22965 0.0 102639
09:00+13w12690 0.0 1025697
12:00+16nnw23424 0.0 10231699
15:00+17n334399 0.0 10221802
18:00+14ene256898 0.0 1021220
21:00+9ese2384100 0.0 102068
24 april, sat
sat2400:00+9sw1181100 0.0 101930
03:00+9ssw1180100 0.0 102019
06:00+8sw1184100 0.0 102037
09:00+11wsw2662100 0.0 1020686
12:00+16w584535 0.0 10191741
15:00+17wsw610455 0.0 10191889
18:00+14wnw59642 0.0 1020803
21:00+9wnw1588100 0.0 1023481
25 april, sun
sun2500:00+9wnw0180100 0.1 1023152
03:00+8ene1180100 0.1 102258
06:00+8e137798 0.0 1022198
09:00+11ene4567100 0.0 1020845
12:00+12ene446895 0.0 1019965
15:00+14ene5665100 0.0 10161148
18:00+11ene4883100 0.0 1015573
21:00+9ene3891100 0.0 1015352
26 april, mon
mon2600:00+9ne1394100 0.1 1013117
03:00+8nnw009599 0.2 101366
06:00+8wnw1196100 0.0 1011125
09:00+8nw2399100 1.8 1011255
12:00+8ssw1298100 4.7 1012184
15:00+9nnw2399100 9.4 1012249
18:00+8wnw2599100 11.9 1014334
21:00+7wnw2499100 12.3 1017333
27 april, tue
tue2700:00+7w2597100 0.1 1017354
03:00+5w119776 0.1 101816
06:00+6ssw129775 0.0 1019103
09:00+10ene117162 0.0 1018736
12:00+13nne115885 0.0 10171252
15:00+12nnw116580 0.0 1016866
18:00+12n1273100 0.1 1016102
21:00+10nw1386100 0.1 101897